Time,TemperatureF,DewpointF,PressureIn,WindDirection,WindDirectionDegrees,WindSpeedMPH,WindSpeedGustMPH,Humidity,HourlyPrecipIn,Conditions,Clouds,dailyrainin,SoftwareType,DateUTC
2013-03-13 00:14:00,42.7,37.0,30.01,NE,38,0.0,2.0,81,0.00,,,0.00,weatherlink.com 1.10,2013-03-13 07:14:00,
2013-03-13 00:29:00,42.1,37.0,30.02,WNW,282,0.0,2.0,82,0.00,,,0.00,weatherlink.com 1.10,2013-03-13 07:29:00,
2013-03-13 00:44:00,41.7,37.0,30.02,SW,234,0.0,2.0,83,0.00,,,0.00,weatherlink.com 1.10,2013-03-13 07:44:00,
2013-03-13 00:59:00,41.2,37.0,30.02,SW,234,0.0,1.0,84,0.00,,,0.00,weatherlink.com 1.10,2013-03-13 07:59:00,
2013-03-13 01:14:00,40.5,36.0,30.02,WNW,286,0.0,2.0,85,0.00,,,0.00,weatherlink.com 1.10,2013-03-13 08:14:00,
2013-03-13 01:29:00,40.3,37.0,30.02,WNW,286,0.0,1.0,86,0.00,,,0.00,weatherlink.com 1.10,2013-03-13 08:29:00,
2013-03-13 01:44:00,39.8,37.0,30.03,WNW,286,0.0,1.0,88,0.00,,,0.00,weatherlink.com 1.10,2013-03-13 08:44:00,
2013-03-13 01:59:00,39.3,36.0,30.02,ESE,103,0.0,3.0,87,0.00,,,0.00,weatherlink.com 1.10,2013-03-13 08:59:00,
2013-03-13 02:14:00,39.1,36.0,30.02,ESE,103,0.0,0.0,88,0.00,,,0.00,weatherlink.com 1.10,2013-03-13 09:14:00,
2013-03-13 02:29:00,38.7,36.0,30.02,North,360,0.0,2.0,88,0.00,,,0.00,weatherlink.com 1.10,2013-03-13 09:29:00,
2013-03-13 02:44:00,38.3,35.0,30.03,North,360,0.0,1.0,89,0.00,,,0.00,weatherlink.com 1.10,2013-03-13 09:44:00,
2013-03-13 02:59:00,37.8,35.0,30.03,North,360,0.0,1.0,90,0.00,,,0.00,weatherlink.com 1.10,2013-03-13 09:59:00,
2013-03-13 03:14:00,37.5,35.0,30.02,North,360,0.0,0.0,90,0.00,,,0.00,weatherlink.com 1.10,2013-03-13 10:14:00,
2013-03-13 03:29:00,37.3,35.0,30.03,North,360,0.0,2.0,91,0.00,,,0.00,weatherlink.com 1.10,2013-03-13 10:29:00,
2013-03-13 03:44:00,36.9,35.0,30.02,North,360,0.0,1.0,91,0.00,,,0.00,weatherlink.com 1.10,2013-03-13 10:44:00,
2013-03-13 03:59:00,36.5,34.0,30.03,NNW,327,0.0,2.0,92,0.00,,,0.00,weatherlink.com 1.10,2013-03-13 10:59:00,
2013-03-13 04:14:00,36.4,34.0,30.03,West,277,1.0,3.0,92,0.00,,,0.00,weatherlink.com 1.10,2013-03-13 11:14:00,
2013-03-13 04:29:00,36.1,34.0,30.03,SSE,148,0.0,1.0,92,0.00,,,0.00,weatherlink.com 1.10,2013-03-13 11:29:00,
2013-03-13 04:44:00,36.0,34.0,30.04,SSE,148,1.0,1.0,92,0.00,,,0.00,weatherlink.com 1.10,2013-03-13 11:44:00,
2013-03-13 04:59:00,36.0,34.0,30.04,SSE,148,0.0,1.0,92,0.00,,,0.00,weatherlink.com 1.10,2013-03-13 11:59:00,
2013-03-13 05:14:00,35.5,33.0,30.04,SSE,148,0.0,0.0,92,0.00,,,0.00,weatherlink.com 1.10,2013-03-13 12:14:00,
2013-03-13 05:29:00,35.3,33.0,30.05,SSE,148,0.0,1.0,92,0.00,,,0.00,weatherlink.com 1.10,2013-03-13 12:29:00,
2013-03-13 05:44:00,34.8,33.0,30.05,SW,216,0.0,2.0,92,0.00,,,0.00,weatherlink.com 1.10,2013-03-13 12:44:00,
2013-03-13 05:59:00,34.5,33.0,30.05,SW,216,0.0,1.0,93,0.00,,,0.00,weatherlink.com 1.10,2013-03-13 12:59:00,
2013-03-13 06:14:00,34.6,33.0,30.05,South,179,0.0,2.0,93,0.00,,,0.00,weatherlink.com 1.10,2013-03-13 13:14:00,
2013-03-13 06:29:00,34.3,33.0,30.05,West,261,1.0,2.0,93,0.00,,,0.00,weatherlink.com 1.10,2013-03-13 13:29:00,
2013-03-13 06:44:00,34.4,33.0,30.06,WNW,299,0.0,3.0,93,0.00,,,0.00,weatherlink.com 1.10,2013-03-13 13:44:00,
2013-03-13 06:59:00,34.7,33.0,30.07,WNW,299,0.0,0.0,93,0.00,,,0.00,weatherlink.com 1.10,2013-03-13 13:59:00,
2013-03-13 07:14:00,35.0,34.0,30.08,West,281,0.0,3.0,94,0.00,,,0.00,weatherlink.com 1.10,2013-03-13 14:14:00,
2013-03-13 07:29:00,36.4,35.0,30.08,West,281,0.0,1.0,94,0.00,,,0.00,weatherlink.com 1.10,2013-03-13 14:29:00,
2013-03-13 07:45:00,38.4,37.0,30.08,West,281,0.0,1.0,94,0.00,,,0.00,weatherlink.com 1.10,2013-03-13 14:45:00,
2013-03-13 08:00:00,41.8,38.0,30.09,West,281,0.0,0.0,87,0.00,,,0.00,weatherlink.com 1.10,2013-03-13 15:00:00,
2013-03-13 08:15:00,45.9,38.0,30.09,WNW,298,2.0,4.0,75,0.00,,,0.00,weatherlink.com 1.10,2013-03-13 15:15:00,
2013-03-13 08:30:00,51.5,37.0,30.09,WNW,298,6.0,6.0,57,0.00,,,0.00,weatherlink.com 1.10,2013-03-13 15:30:00,
2013-03-13 08:45:00,54.7,36.0,30.09,NW,323,4.0,8.0,49,0.00,,,0.00,weatherlink.com 1.10,2013-03-13 15:45:00,
2013-03-13 09:00:00,56.2,36.0,30.09,WNW,296,2.0,9.0,47,0.00,,,0.00,weatherlink.com 1.10,2013-03-13 16:00:00,
2013-03-13 09:15:00,58.0,34.0,30.09,NW,309,4.0,9.0,41,0.00,,,0.00,weatherlink.com 1.10,2013-03-13 16:15:00,
2013-03-13 09:30:00,60.0,35.0,30.09,NW,307,3.0,8.0,39,0.00,,,0.00,weatherlink.com 1.10,2013-03-13 16:30:00,
2013-03-13 09:45:00,62.2,37.0,30.08,WNW,297,2.0,6.0,39,0.00,,,0.00,weatherlink.com 1.10,2013-03-13 16:45:00,
2013-03-13 10:00:00,64.1,36.0,30.08,WSW,250,3.0,6.0,35,0.00,,,0.00,weatherlink.com 1.10,2013-03-13 17:00:00,
2013-03-13 10:15:00,66.8,36.0,30.07,West,267,1.0,4.0,32,0.00,,,0.00,weatherlink.com 1.10,2013-03-13 17:15:00,
2013-03-13 10:30:00,68.2,36.0,30.07,WNW,282,1.0,4.0,30,0.00,,,0.00,weatherlink.com 1.10,2013-03-13 17:30:00,
2013-03-13 10:45:00,70.4,33.0,30.07,WNW,293,3.0,4.0,25,0.00,,,0.00,weatherlink.com 1.10,2013-03-13 17:45:00,
2013-03-13 11:00:00,71.3,35.0,30.06,West,277,1.0,3.0,26,0.00,,,0.00,weatherlink.com 1.10,2013-03-13 18:00:00,
2013-03-13 11:15:00,71.7,30.0,30.05,NNW,336,4.0,4.0,21,0.00,,,0.00,weatherlink.com 1.10,2013-03-13 18:15:00,
2013-03-13 11:30:00,73.7,31.0,30.05,WNW,290,3.0,4.0,21,0.00,,,0.00,weatherlink.com 1.10,2013-03-13 18:30:00,
2013-03-13 11:45:00,75.9,32.0,30.04,SSW,194,1.0,6.0,20,0.00,,,0.00,weatherlink.com 1.10,2013-03-13 18:45:00,
2013-03-13 12:01:00,76.0,29.0,30.03,SE,126,0.0,3.0,18,0.00,,,0.00,weatherlink.com 1.10,2013-03-13 19:01:00,
2013-03-13 12:16:00,76.9,30.0,30.02,SW,216,3.0,6.0,18,0.00,,,0.00,weatherlink.com 1.10,2013-03-13 19:16:00,
2013-03-13 12:31:00,77.4,29.0,30.02,North,351,4.0,6.0,17,0.00,,,0.00,weatherlink.com 1.10,2013-03-13 19:31:00,
2013-03-13 12:46:00,78.0,34.0,30.00,SSW,200,0.0,4.0,20,0.00,,,0.00,weatherlink.com 1.10,2013-03-13 19:46:00,
2013-03-13 13:01:00,79.6,32.0,29.99,SSW,213,3.0,5.0,18,0.00,,,0.00,weatherlink.com 1.10,2013-03-13 20:01:00,
2013-03-13 13:16:00,79.8,33.0,29.98,SW,214,1.0,5.0,18,0.00,,,0.00,weatherlink.com 1.10,2013-03-13 20:16:00,
2013-03-13 13:46:00,79.5,31.0,29.96,NE,44,5.0,7.0,17,0.00,,,0.00,weatherlink.com 1.10,2013-03-13 20:46:00,
2013-03-13 14:16:00,81.1,32.0,29.95,ESE,104,2.0,7.0,17,0.00,,,0.00,weatherlink.com 1.10,2013-03-13 21:16:00,
2013-03-13 14:46:00,81.5,33.0,29.95,SE,146,0.0,6.0,17,0.00,,,0.00,weatherlink.com 1.10,2013-03-13 21:46:00,
2013-03-13 15:01:00,82.0,30.0,29.94,SW,227,0.0,4.0,15,0.00,,,0.00,weatherlink.com 1.10,2013-03-13 22:01:00,
2013-03-13 15:16:00,82.7,34.0,29.94,SW,236,1.0,4.0,17,0.00,,,0.00,weatherlink.com 1.10,2013-03-13 22:16:00,
2013-03-13 15:31:00,83.2,34.0,29.94,SW,223,3.0,5.0,17,0.00,,,0.00,weatherlink.com 1.10,2013-03-13 22:31:00,
2013-03-13 15:46:00,84.2,32.0,29.93,WSW,257,2.0,6.0,15,0.00,,,0.00,weatherlink.com 1.10,2013-03-13 22:46:00,
2013-03-13 16:16:00,83.4,33.0,29.92,East,81,2.0,5.0,16,0.00,,,0.00,weatherlink.com 1.10,2013-03-13 23:16:00,
2013-03-13 16:31:00,80.8,29.0,29.91,North,360,2.0,6.0,15,0.00,,,0.00,weatherlink.com 1.10,2013-03-13 23:31:00,
2013-03-13 16:46:00,80.5,30.0,29.91,ENE,63,1.0,4.0,16,0.00,,,0.00,weatherlink.com 1.10,2013-03-13 23:46:00,
2013-03-13 17:01:00,80.5,32.0,29.91,West,269,4.0,4.0,17,0.00,,,0.00,weatherlink.com 1.10,2013-03-14 00:01:00,
2013-03-13 17:16:00,80.7,32.0,29.91,North,350,2.0,6.0,17,0.00,,,0.00,weatherlink.com 1.10,2013-03-14 00:16:00,
2013-03-13 17:31:00,80.3,30.0,29.91,NW,314,0.0,5.0,16,0.00,,,0.00,weatherlink.com 1.10,2013-03-14 00:31:00,
2013-03-13 17:46:00,79.5,32.0,29.92,West,280,1.0,4.0,18,0.00,,,0.00,weatherlink.com 1.10,2013-03-14 00:46:00,
2013-03-13 18:01:00,78.2,31.0,29.92,West,280,0.0,2.0,18,0.00,,,0.00,weatherlink.com 1.10,2013-03-14 01:01:00,
2013-03-13 18:16:00,76.4,31.0,29.92,NW,322,3.0,5.0,19,0.00,,,0.00,weatherlink.com 1.10,2013-03-14 01:16:00,
2013-03-13 18:31:00,74.9,31.0,29.92,ENE,67,2.0,4.0,20,0.00,,,0.00,weatherlink.com 1.10,2013-03-14 01:31:00,
2013-03-13 18:46:00,73.0,31.0,29.93,ENE,61,1.0,3.0,21,0.00,,,0.00,weatherlink.com 1.10,2013-03-14 01:46:00,
2013-03-13 19:01:00,71.6,30.0,29.93,NE,55,4.0,8.0,21,0.00,,,0.00,weatherlink.com 1.10,2013-03-14 02:01:00,
2013-03-13 19:16:00,70.9,30.0,29.93,ENE,66,3.0,7.0,22,0.00,,,0.00,weatherlink.com 1.10,2013-03-14 02:16:00,
2013-03-13 19:31:00,70.3,30.0,29.94,ESE,103,1.0,8.0,22,0.00,,,0.00,weatherlink.com 1.10,2013-03-14 02:31:00,
2013-03-13 19:47:00,68.0,34.0,29.95,SW,236,1.0,3.0,29,0.00,,,0.00,weatherlink.com 1.10,2013-03-14 02:47:00,
2013-03-13 20:01:00,64.6,32.0,29.95,SW,227,0.0,5.0,30,0.00,,,0.00,weatherlink.com 1.10,2013-03-14 03:01:00,
2013-03-13 20:16:00,62.3,33.0,29.96,SSW,210,2.0,3.0,34,0.00,,,0.00,weatherlink.com 1.10,2013-03-14 03:16:00,
2013-03-13 20:32:00,61.4,34.0,29.97,WSW,245,2.0,4.0,36,0.00,,,0.00,weatherlink.com 1.10,2013-03-14 03:32:00,
2013-03-13 20:46:00,61.3,32.0,29.98,WNW,287,1.0,6.0,33,0.00,,,0.00,weatherlink.com 1.10,2013-03-14 03:46:00,
2013-03-13 21:01:00,61.4,33.0,29.98,West,269,3.0,5.0,34,0.00,,,0.00,weatherlink.com 1.10,2013-03-14 04:01:00,
2013-03-13 21:16:00,60.3,32.0,29.99,ENE,65,0.0,4.0,34,0.00,,,0.00,weatherlink.com 1.10,2013-03-14 04:16:00,
2013-03-13 21:31:00,59.1,33.0,29.99,North,360,2.0,2.0,38,0.00,,,0.00,weatherlink.com 1.10,2013-03-14 04:31:00,
2013-03-13 21:47:00,57.2,34.0,30.00,NE,48,2.0,5.0,42,0.00,,,0.00,weatherlink.com 1.10,2013-03-14 04:47:00,
2013-03-13 22:02:00,55.9,35.0,30.00,WSW,244,1.0,2.0,45,0.00,,,0.00,weatherlink.com 1.10,2013-03-14 05:02:00,
2013-03-13 22:17:00,54.2,35.0,30.00,SSE,163,0.0,2.0,49,0.00,,,0.00,weatherlink.com 1.10,2013-03-14 05:17:00,
2013-03-13 22:47:00,51.9,34.0,30.00,WSW,245,2.0,6.0,51,0.00,,,0.00,weatherlink.com 1.10,2013-03-14 05:47:00,
2013-03-13 23:02:00,51.6,34.0,30.00,WNW,295,2.0,2.0,52,0.00,,,0.00,weatherlink.com 1.10,2013-03-14 06:02:00,
2013-03-13 23:17:00,50.6,35.0,30.01,North,5,1.0,2.0,56,0.00,,,0.00,weatherlink.com 1.10,2013-03-14 06:17:00,
2013-03-13 23:32:00,49.3,35.0,30.00,North,5,0.0,0.0,58,0.00,,,0.00,weatherlink.com 1.10,2013-03-14 06:32:00,
2013-03-13 23:47:00,47.9,35.0,30.00,NW,317,1.0,3.0,61,0.00,,,0.00,weatherlink.com 1.10,2013-03-14 06:47:00,